Tracking 30120 objects as of 6-Feb-2025
HD Live streaming from Space Station
objects crossing your sky now

PEGASUS DEB

Track PEGASUS DEB now!
10-day predictions


NORAD ID: 39928
Int'l Code: 1994-029AGB
Perigee: 507.5 km
Apogee: 701.8 km
Inclination: 81.0 °
Period: 96.6 minutes
Semi major axis: 6975 km
RCS: 0.0163 m2 (small)
Launch date: May 19, 1994
Source: United States (US)
Launch site: AIR FORCE WESTERN TEST RANGE (AFWTR)

Note: This is SATELLITE DEBRIS
Your satellite tracking list
Your tracking list is empty




NASA's NSSDC Master Catalog

Two Line Element Set (TLE):
1 39928U 94029AGB 25033.72633906  .00075321  00000-0  64185-2 0  9998
2 39928  81.0095  44.4645 0139279 285.0395  73.5441 14.90146218561491
Source of the keplerian elements: AFSPC